Terminal Aerodrome Forecast
Issued by NWS New Orleans/Baton Rouge, LA

Home | Current Version | Previous Version | Text Only | Print | Product List | Glossary On
Versions: 1 2 3 4 5 6 7 8 9 10 11 12 13
000
FTUS44 KLIX 300520
TAFBTR
TAF
KBTR 300520Z 3006/0106 13012G23KT P6SM BKN025 BKN030
     FM301500 18024G34KT 2SM TSRA OVC015CB=

USA.gov is the U.S. government's official web portal to all federal, state and local government web resources and services.